Regional Weather Roundup
Issued by NWS

Home | Current Version | Previous Version | Text Only | Print | Product List | Glossary On
Versions: 1 2 3 4 5 6 7 8 9 10 11 12 13 14 15 16 17 18 19 20 21 22 23 24 25 26 27 28 29 30 31 32 33 34 35 36 37 38 39 40 41 42 43 44 45 46 47 48 49 50
000
ASUS45 KABQ 261910
RWRNM
NEW MEXICO REGIONAL WEATHER ROUNDUP
NATIONAL WEATHER SERVICE ALBUQUERQUE NM
100 PM MDT WED JUL 26 2017

NOTE: "FAIR" MEANS FEW OR NO CLOUDS BELOW 12,000 FEET AGL WITH NO
       SIGNIFICANT WEATHER OR OBSTRUCTIONS TO VISION.

      THIS PRODUCT IS RELEASED AS TWO VERSIONS.  ONE VERSION NEAR
      THE TOP OF THE HOUR CONTAINING PRELIMINARY DATA FROM ALBUQUERQUE
      AND OTHER STATIONS.  A FINAL VERSION WITH ADDITIONAL DATA IS
      ISSUED ABOUT 10 MINUTES AFTER THE HOUR.

NMZ501-503-504-510>518-262000-
NORTHWEST PLATEAU/NORTHCENTRAL MOUNTAINS

CITY           SKY/WX    TMP DP  RH WIND       PRES   REMARKS
FARMINGTON     FAIR      83  56  39 VRB5      30.26F
LOS ALAMOS     HVY RAIN  63  55  75 SE6       30.42R
SANTA FE       PTSUNNY   85  55  35 VRB3      30.30F
TAOS           FAIR      81  52  36 W3        30.36F
ANGEL FIRE     FAIR      74  49  40 W10G16    30.45F

$$
NMZ402-403-502-505>509-262000-
WESTCENTRAL MOUNTAINS/SOUTHWEST MOUNTAINS

CITY           SKY/WX    TMP DP  RH WIND       PRES   REMARKS
GALLUP         FAIR      81  53  37 W8        30.34F
GRANTS         PTSUNNY   81  49  33 NW5       30.36F
SILVER CITY    FAIR      87  56  34 W13G20    30.24F

$$
NMZ407-409-411-412-262000-
SOUTHERN DESERTS

CITY           SKY/WX    TMP DP  RH WIND       PRES   REMARKS
DEMING         FAIR      93  58  30 W7        30.14F
LAS CRUCES     FAIR      90  55  31 E5        30.16F
HOLLOMAN AFB   FAIR      99  55  22 NW7       30.13F HX  98
ALAMOGORDO     FAIR      93  55  27 NW8       30.13F
T OR C         FAIR      90  32  12 VRB3      30.18F

$$
NMZ519>523-262000-
CENTRAL VALLEYS/CENTRAL HIGHLANDS

CITY           SKY/WX    TMP DP  RH WIND       PRES   REMARKS
ALBUQUERQUE    PTSUNNY   88  55  32 VRB7G20   30.24F
DOUBLE EAGLE   PTSUNNY   82  57  42 W7        30.28F
MORIARTY ARPT  FAIR      89  54  29 NW14      30.30F
CLINES CORNERS FAIR      84  49  29 W14G21    30.35F
BELEN          FAIR      88  53  29 E5        30.23F
SOCORRO        FAIR      89  54  29 N5        30.20F

$$
NMZ524>526-539-540-262000-
SOUTHCENTRAL MOUNTAINS

CITY           SKY/WX    TMP DP  RH WIND       PRES   REMARKS
RUIDOSO        FAIR      82  54  36 N10G16    30.37F

$$
NMZ527>531-262000-
NORTHEAST HIGHLANDS/NORTHEAST PLAINS

CITY           SKY/WX    TMP DP  RH WIND       PRES   REMARKS
LAS VEGAS      FAIR      83  48  29 SW12      30.31F
RATON          FAIR      87  49  26 CALM      30.25F
CLAYTON        FAIR      91  57  31 NE9       30.18S

$$
NMZ532>537-262000-
EASTCENTRAL PLAINS

CITY           SKY/WX    TMP DP  RH WIND       PRES   REMARKS
SANTA ROSA     FAIR      96  51  21 W10       30.13F
TUCUMCARI      FAIR      97  55  24 W8        30.06F HX  95
CANNON AFB     FAIR      93  56  28 SW7       30.13F
CLOVIS AIRPORT FAIR      92  59  33 VRB5      30.13F

$$
NMZ028-029-538-262000-
SOUTHEAST PLAINS

CITY           SKY/WX    TMP DP  RH WIND       PRES   REMARKS
ROSWELL        FAIR      98  58  26 NE12      30.07F HX  97
ARTESIA        FAIR      97  59  28 E14       30.06F HX  96
CARLSBAD       FAIR      95  63  34 VRB6      30.06F HX  96
HOBBS          MOSUNNY   91  59  33 SE12      30.12F


$$



USA.gov is the U.S. government's official web portal to all federal, state and local government web resources and services.